Watford City, ND

6:25 AM CDT on September 28, 2016 (GMT -0500)
Watford City

Weather History for KS25 - March, 2013

Change the Weather History Date:

Sunday, March 3, 2013

  Actual Average (KISN) Record (KISN)
Temperature  
Mean Temperature 32 °F 23 °F  
Max Temperature 35 °F 34 °F 62 °F (1992)
Min Temperature 28 °F 13 °F -26 °F (1917)
Degree Days  
Heating Degree Days 34 42  
Month to date heating degree days 127  
Since 1 July heating degree days 6895  
Cooling Degree Days 0 0  
Month to date cooling degree days 0  
Year to date cooling degree days 0  
Moisture  
Dew Point 31 °F    
Average Humidity 94    
Maximum Humidity 100    
Minimum Humidity 87    
Precipitation  
Precipitation 3.84 in 0.02 in 0.35 in (1919)
Month to date precipitation 0.06  
Year to date precipitation 1.04  
Sea Level Pressure  
Sea Level Pressure 29.64 in    
Wind  
Wind Speed 7 mph (East)    
Max Wind Speed 17 mph    
Max Gust Speed 21 mph    
Visibility 6 miles    
Events Rain , Snow    
T = Trace of Precipitation, MM = Missing Value Source: NWS Daily Summary

Daily Weather History Graph

Daily Weather History Graph

Search for Another Location

Airport or City:

Trip Planner

Search our weather history database for the weather conditions in past years. The results will help you decide how hot, cold, wet, or windy it might be!

Date:

Astronomy

Mar. 03, 2013 Rise Set
Actual Time 7:29 AM CST 6:41 PM CST
Civil Twilight 6:58 AM CST 7:12 PM CST
Nautical Twilight 6:22 AM CST 7:47 PM CST
Astronomical Twilight 5:46 AM CST 8:24 PM CST
Moon 12:50 AM CST (3/3) 10:17 AM CST (3/3)
Length of Visible Light 12h 13m
Length of Day
11h 11m
Waning Gibbous, 63% of the Moon is Illuminated
Mar 3
Waning Gibbous
Mar 4
Last Quarter
Mar 11
New
Mar 19
First Quarter
Mar 27
Full

Hourly Weather History & Observations

Time (CST) Temp. Windchill Dew Point Humidity Pressure Visibility Wind Dir Wind Speed Gust Speed Precip Events Conditions
12:15 AM 32.0 °F 27.5 °F 30.2 °F 93% 29.87 in 8.0 mi ESE 4.6 mph - N/A   Clear
12:35 AM 32.0 °F 25.6 °F 30.2 °F 93% 29.86 in 7.0 mi East 6.9 mph - N/A   Clear
12:55 AM 32.0 °F 24.8 °F 30.2 °F 93% 29.85 in 7.0 mi ESE 8.1 mph - N/A   Clear
1:15 AM 32.0 °F 25.6 °F 30.2 °F 93% 29.84 in 7.0 mi ESE 6.9 mph - N/A   Clear
1:35 AM 32.0 °F 25.6 °F 30.2 °F 93% 29.83 in 8.0 mi ESE 6.9 mph - N/A   Clear
1:55 AM 32.0 °F 27.5 °F 28.4 °F 87% 29.83 in 8.0 mi ESE 4.6 mph - N/A   Clear
2:15 AM 32.0 °F 26.4 °F 28.4 °F 87% 29.82 in 7.0 mi ESE 5.8 mph - N/A   Clear
2:35 AM 30.2 °F 24.3 °F 28.4 °F 93% 29.81 in 7.0 mi ESE 5.8 mph - N/A   Clear
3:15 AM 32.0 °F 26.4 °F 28.4 °F 87% 29.79 in 8.0 mi ESE 5.8 mph - N/A   Clear
3:35 AM 32.0 °F 25.6 °F 28.4 °F 87% 29.77 in 8.0 mi ESE 6.9 mph - N/A   Clear
3:55 AM 32.0 °F 25.6 °F 28.4 °F 87% 29.76 in 8.0 mi ESE 6.9 mph - N/A   Clear
4:15 AM 32.0 °F 27.5 °F 28.4 °F 87% 29.75 in 8.0 mi East 4.6 mph - N/A   Clear
4:35 AM 32.0 °F 25.6 °F 28.4 °F 87% 29.74 in 8.0 mi SE 6.9 mph - N/A   Clear
4:55 AM 32.0 °F 24.8 °F 28.4 °F 87% 29.73 in 8.0 mi ESE 8.1 mph - N/A   Clear
5:15 AM 32.0 °F 24.8 °F 28.4 °F 87% 29.72 in 8.0 mi ESE 8.1 mph - N/A   Clear
5:35 AM 30.2 °F 21.9 °F 28.4 °F 93% 29.72 in 7.0 mi ESE 9.2 mph - N/A   Clear
5:55 AM 30.2 °F 22.6 °F 28.4 °F 93% 29.71 in 7.0 mi ESE 8.1 mph - N/A   Clear
6:15 AM 30.2 °F 22.6 °F 28.4 °F 93% 29.70 in 7.0 mi ESE 8.1 mph - N/A   Clear
6:35 AM 30.2 °F 21.9 °F 28.4 °F 93% 29.70 in 6.0 mi ESE 9.2 mph - N/A   Clear
6:55 AM 28.4 °F 24.6 °F 28.4 °F 100% 29.69 in 5.0 mi ENE 3.5 mph - N/A   Clear
7:15 AM 28.4 °F 23.3 °F 28.4 °F 100% 29.69 in 5.0 mi East 4.6 mph - N/A   Clear
7:35 AM 28.4 °F 22.2 °F 28.4 °F 100% 29.68 in 3.0 mi East 5.8 mph - N/A   Clear
7:55 AM 28.4 °F - 28.4 °F 100% 29.68 in 4.0 mi Calm Calm - N/A   Clear
8:15 AM 28.4 °F - 28.4 °F 100% 29.68 in 3.0 mi Calm Calm - N/A   Clear
8:35 AM 30.2 °F 26.7 °F 28.4 °F 93% 29.67 in 3.0 mi East 3.5 mph - N/A   Clear
9:15 AM 32.0 °F 26.4 °F 30.2 °F 93% 29.66 in 4.0 mi SE 5.8 mph - N/A   Partly Cloudy
9:35 AM 32.0 °F 24.2 °F 30.2 °F 93% 29.66 in 4.0 mi ESE 9.2 mph - N/A   Clear
9:55 AM 32.0 °F 24.2 °F 30.2 °F 93% 29.65 in 5.0 mi SE 9.2 mph - N/A   Clear
10:15 AM 32.0 °F 23.6 °F 30.2 °F 93% 29.65 in 5.0 mi ESE 10.4 mph - N/A   Clear
10:35 AM 32.0 °F 25.6 °F 30.2 °F 93% 29.65 in 5.0 mi ESE 6.9 mph - N/A   Partly Cloudy
10:55 AM 32.0 °F 23.0 °F 32.0 °F 100% 29.64 in 5.0 mi SE 11.5 mph - N/A   Partly Cloudy
11:15 AM 32.0 °F 24.2 °F 32.0 °F 100% 29.63 in 6.0 mi ESE 9.2 mph - N/A   Partly Cloudy
11:35 AM 33.8 °F 26.4 °F 32.0 °F 93% 29.62 in 7.0 mi ESE 9.2 mph - N/A   Partly Cloudy
11:55 AM 33.8 °F 25.8 °F 32.0 °F 93% 29.61 in 8.0 mi ESE 10.4 mph - N/A   Clear
12:15 PM 35.6 °F 28.6 °F 32.0 °F 87% 29.61 in 9.0 mi ESE 9.2 mph - N/A   Clear
12:35 PM 35.6 °F 29.9 °F 32.0 °F 87% 29.60 in 10.0 mi ESE 6.9 mph - N/A   Partly Cloudy
12:55 PM 35.6 °F 29.9 °F 32.0 °F 87% 29.59 in 10.0 mi SE 6.9 mph - N/A   Clear
1:15 PM 35.6 °F 28.0 °F 32.0 °F 87% 29.59 in 10.0 mi ESE 10.4 mph - N/A   Clear
1:35 PM 35.6 °F 29.2 °F 32.0 °F 87% 29.59 in 10.0 mi ESE 8.1 mph - N/A   Partly Cloudy
1:55 PM 35.6 °F 29.2 °F 32.0 °F 87% 29.58 in 10.0 mi ESE 8.1 mph - N/A   Scattered Clouds
2:15 PM 35.6 °F 29.9 °F 32.0 °F 87% 29.57 in 10.0 mi ESE 6.9 mph - N/A   Scattered Clouds
2:35 PM 35.6 °F 28.6 °F 32.0 °F 87% 29.57 in 7.0 mi ESE 9.2 mph - N/A Rain Light Rain
2:55 PM 35.6 °F 28.6 °F 33.8 °F 93% 29.56 in 4.0 mi ESE 9.2 mph - N/A Rain Light Rain
3:15 PM 35.6 °F 29.2 °F 33.8 °F 93% 29.56 in 5.0 mi East 8.1 mph - N/A Rain Light Rain
3:35 PM 35.6 °F 28.0 °F 33.8 °F 93% 29.55 in 3.0 mi East 10.4 mph - N/A Rain Light Rain
3:55 PM 33.8 °F 25.8 °F 33.8 °F 100% 29.55 in 7.0 mi East 10.4 mph - N/A   Overcast
4:15 PM 35.6 °F 28.0 °F 33.8 °F 93% 29.55 in 8.0 mi East 10.4 mph - N/A   Overcast
4:35 PM 35.6 °F 28.0 °F 33.8 °F 93% 29.55 in 5.0 mi East 10.4 mph - N/A Rain Light Rain
4:55 PM 35.6 °F 28.0 °F 33.8 °F 93% 29.55 in 8.0 mi East 10.4 mph - N/A   Overcast
5:15 PM 35.6 °F 28.0 °F 33.8 °F 93% 29.54 in 8.0 mi East 10.4 mph - N/A   Overcast
5:35 PM 35.6 °F 27.5 °F 33.8 °F 93% 29.54 in 2.5 mi East 11.5 mph - N/A Rain Light Rain
5:55 PM 35.6 °F 26.6 °F 33.8 °F 93% 29.53 in 8.0 mi East 13.8 mph - N/A   Overcast
6:35 PM 33.8 °F 24.8 °F 33.8 °F 100% 29.54 in 8.0 mi ESE 12.7 mph - N/A   Overcast
6:55 PM 33.8 °F 25.8 °F 33.8 °F 100% 29.54 in 7.0 mi East 10.4 mph - N/A   Overcast
7:15 PM 32.0 °F 22.1 °F 32.0 °F 100% 29.53 in 5.0 mi East 13.8 mph - N/A   Overcast
7:35 PM 32.0 °F 20.8 °F 32.0 °F 100% 29.54 in 4.0 mi East 17.3 mph - N/A   Overcast
7:55 PM 32.0 °F 21.6 °F 32.0 °F 100% 29.53 in 4.0 mi East 15.0 mph 20.7 mph N/A   Overcast
8:15 PM 32.0 °F 23.6 °F 32.0 °F 100% 29.54 in 4.0 mi ENE 10.4 mph - N/A   Overcast
8:35 PM 32.0 °F 27.5 °F 32.0 °F 100% 29.54 in 3.0 mi NE 4.6 mph - N/A   Overcast
8:55 PM 32.0 °F 23.6 °F 32.0 °F 100% 29.53 in 3.0 mi ENE 10.4 mph - N/A   Overcast
9:15 PM 32.0 °F - 32.0 °F 100% 29.55 in 2.5 mi Calm Calm - N/A   Overcast
9:35 PM 32.0 °F 26.4 °F 32.0 °F 100% 29.54 in 2.5 mi ENE 5.8 mph - N/A Rain Light Rain
9:55 PM 32.0 °F 26.4 °F 32.0 °F 100% 29.55 in 1.5 mi North 5.8 mph - 0.06 in   Overcast
10:15 PM 32.0 °F 25.6 °F 32.0 °F 100% 29.54 in 0.8 mi NNE 6.9 mph - 0.44 in Snow Light Snow
10:35 PM 32.0 °F 26.4 °F 32.0 °F 100% 29.54 in 0.5 mi NE 5.8 mph - 1.34 in Snow Snow
10:55 PM 32.0 °F 28.7 °F 32.0 °F 100% 29.56 in 0.5 mi North 3.5 mph - 2.34 in Snow Snow
11:15 PM 32.0 °F 26.4 °F 32.0 °F 100% 29.56 in 0.8 mi NW 5.8 mph - 0.38 in Snow Light Snow
11:35 PM 32.0 °F 23.6 °F 32.0 °F 100% 29.56 in 0.8 mi North 10.4 mph - 0.91 in Snow Light Snow
11:55 PM 28.4 °F 19.7 °F 28.4 °F 100% 29.56 in 0.8 mi NNE 9.2 mph - 1.44 in Snow Light Snow